.
WxDataArchive / Data Records for 2014-06-20
2014-06-19 June 2014 2014-06-21

Data Records for Friday, 20 June 2014

Time	Temp	Chill	HIndex	Humid	Dewpt	 Wind 	HiWind	WindDir	Rain 	Barom
-----	----	-----	------	-----	-----	------	------	-------	-----	-----
00:00	69.9	69.9	69.9	80	63.4	1	3	90	0.00	30.059 
00:05	69.9	69.9	69.9	80	63.4	1	4	90	0.00	30.059 
00:10	69.9	69.9	69.9	80	63.4	1	3	90	0.00	30.059 
00:15	69.9	69.9	69.9	80	63.4	1	3	90	0.00	30.050 
00:20	69.8	69.8	69.8	80	63.3	2	5	90	0.00	30.050 
00:25	69.6	69.6	69.6	81	63.5	1	4	90	0.00	30.050 
00:30	69.4	69.4	69.4	81	63.3	2	6	90	0.00	30.044 
00:35	69.3	69.3	69.3	81	63.2	2	7	90	0.00	30.044 
00:40	69.1	69.1	69.1	81	63.0	1	4	68	0.00	30.044 
00:45	68.9	68.9	68.9	81	62.8	1	3	68	0.00	30.044 
00:50	68.8	68.8	68.8	81	62.7	0	2	68	0.00	30.044 
00:55	68.8	68.8	68.8	81	62.7	1	3	68	0.00	30.044 
01:00	68.6	68.6	68.6	81	62.5	0	2	68	0.00	30.045 
01:05	68.4	68.4	68.4	82	62.7	1	2	68	0.00	30.045 
01:10	68.4	68.4	68.4	82	62.7	1	4	68	0.00	30.045 
01:15	68.3	68.3	68.3	81	62.2	2	4	68	0.00	30.044 
01:20	68.3	68.3	68.3	82	62.6	1	5	90	0.00	30.044 
01:25	68.1	68.1	68.1	82	62.4	1	3	90	0.00	30.044 
01:30	68.1	68.1	68.1	82	62.4	1	5	90	0.00	30.039 
01:35	67.9	67.9	67.9	82	62.2	0	2	68	0.00	30.039 
01:40	67.9	67.9	67.9	83	62.5	1	3	68	0.00	30.039 
01:45	67.9	67.9	67.9	83	62.5	0	2	68	0.00	30.036 
01:50	67.9	67.9	67.9	83	62.5	1	3	68	0.00	30.036 
01:55	67.8	67.8	67.8	83	62.4	1	5	90	0.00	30.036 
02:00	67.8	67.8	67.8	84	62.8	1	3	90	0.00	30.033 
02:05	67.6	67.6	67.6	84	62.6	1	4	90	0.00	30.033 
02:10	67.6	67.6	67.6	84	62.6	1	2	90	0.00	30.033 
02:15	67.4	67.4	67.4	84	62.4	1	4	90	0.00	30.031 
02:20	67.4	67.4	67.4	85	62.7	0	3	90	0.00	30.031 
02:25	67.4	67.4	67.4	85	62.7	0	3	90	0.00	30.031 
02:30	67.3	67.3	67.3	85	62.6	0	1	90	0.00	30.030 
02:35	67.3	67.3	67.3	85	62.6	1	3	90	0.00	30.030 
02:40	67.1	67.1	67.1	85	62.4	0	2	90	0.00	30.030 
02:45	67.1	67.1	67.1	85	62.4	1	2	90	0.00	30.028 
02:50	67.1	67.1	67.1	85	62.4	1	3	90	0.00	30.028 
02:55	67.1	67.1	67.1	85	62.4	1	4	90	0.00	30.028 
03:00	66.9	66.9	66.9	85	62.2	1	3	90	0.00	30.024 
03:05	66.9	66.9	66.9	85	62.2	1	4	90	0.00	30.024 
03:10	66.9	66.9	66.9	85	62.2	1	3	90	0.00	30.024 
03:15	66.9	66.9	66.9	85	62.2	1	4	90	0.00	30.016 
03:20	66.9	66.9	66.9	85	62.2	0	3	90	0.00	30.016 
03:25	66.9	66.9	66.9	84	61.9	2	5	90	0.00	30.016 
03:30	66.9	66.9	66.9	84	61.9	0	4	90	0.00	30.015 
03:35	66.9	66.9	66.9	84	61.9	0	4	90	0.00	30.015 
03:40	66.9	66.9	66.9	84	61.9	0	2	90	0.00	30.015 
03:45	66.9	66.9	66.9	84	61.9	1	4	90	0.00	30.012 
03:50	66.9	66.9	66.9	84	61.9	1	3	90	0.00	30.012 
03:55	66.9	66.9	66.9	83	61.6	1	4	90	0.00	30.012 
04:00	66.9	66.9	66.9	83	61.6	1	4	90	0.00	30.009 
04:05	66.9	66.9	66.9	82	61.2	2	4	68	0.00	30.009 
04:10	66.9	66.9	66.9	82	61.2	1	4	68	0.00	30.009 
04:15	66.9	66.9	66.9	83	61.6	1	3	68	0.00	30.008 
04:20	66.8	66.8	66.8	83	61.5	1	3	68	0.00	30.008 
04:25	66.8	66.8	66.8	83	61.5	1	3	68	0.00	30.008 
04:30	66.8	66.8	66.8	83	61.5	1	4	68	0.00	29.998 
04:35	66.8	66.8	66.8	83	61.5	0	2	68	0.00	29.998 
04:40	66.8	66.8	66.8	83	61.5	1	4	45	0.00	29.998 
04:45	66.8	66.8	66.8	84	61.8	1	3	45	0.00	30.002 
04:50	66.6	66.6	66.6	83	61.3	1	3	68	0.00	30.002 
04:55	66.6	66.6	66.6	83	61.3	1	4	68	0.00	30.002 
05:00	66.6	66.6	66.6	83	61.3	2	4	68	0.00	29.996 
05:05	66.4	66.4	66.4	83	61.1	2	5	68	0.00	29.996 
05:10	66.4	66.4	66.4	83	61.1	1	3	68	0.00	29.996 
05:15	66.4	66.4	66.4	82	60.7	1	4	112	0.00	29.997 
05:20	66.4	66.4	66.4	82	60.7	1	5	112	0.00	29.997 
05:25	66.4	66.4	66.4	82	60.7	1	5	68	0.00	29.997 
05:30	66.3	66.3	66.3	83	61.0	2	7	68	0.00	29.998 
05:35	66.3	66.3	66.3	83	61.0	2	5	68	0.00	29.998 
05:40	66.1	66.1	66.1	83	60.8	1	5	68	0.00	29.998 
05:45	66.1	66.1	66.1	83	60.8	1	3	68	0.00	29.997 
05:50	66.0	66.0	66.0	84	61.0	1	6	90	0.00	29.997 
05:55	66.0	66.0	66.0	84	61.0	1	3	90	0.00	29.997 
06:00	66.0	66.0	66.0	84	61.0	2	6	68	0.00	29.996 
06:05	66.0	66.0	66.0	84	61.0	2	5	68	0.00	29.996 
06:10	66.0	66.0	66.0	84	61.0	1	4	68	0.00	29.996 
06:15	66.0	66.0	66.0	84	61.0	2	5	68	0.00	29.997 
06:20	66.0	66.0	66.0	84	61.0	2	6	68	0.00	29.997 
06:25	65.8	65.8	65.8	84	60.8	2	4	68	0.00	29.997 
06:30	65.8	65.8	65.8	84	60.8	1	4	68	0.00	30.001 
06:35	65.8	65.8	65.8	84	60.8	2	5	68	0.00	30.001 
06:40	65.8	65.8	65.8	84	60.8	1	4	68	0.00	30.001 
06:45	66.0	66.0	66.0	84	61.0	2	4	68	0.00	29.999 
06:50	66.0	66.0	66.0	83	60.7	2	6	68	0.00	29.999 
06:55	66.1	66.1	66.1	83	60.8	2	4	90	0.00	29.999 
07:00	66.1	66.1	66.1	83	60.8	2	5	90	0.00	29.998 
07:05	66.3	66.3	66.3	84	61.3	0	1	90	0.00	29.998 
07:10	66.4	66.4	66.4	83	61.1	1	2	90	0.00	29.998 
07:15	66.4	66.4	66.4	83	61.1	1	4	292	0.00	30.032 
07:20	66.4	66.4	66.4	84	61.4	1	3	292	0.08	30.032 
07:25	66.1	66.1	66.1	86	61.8	0	0	---	0.04	30.032 
07:30	65.8	65.8	65.8	87	61.8	0	0	---	0.01	30.017 
07:35	65.6	65.6	65.6	88	61.9	0	1	292	0.00	30.017 
07:40	65.3	65.3	65.3	89	62.0	0	1	292	0.00	30.017 
07:45	65.2	65.2	65.2	89	61.9	0	1	292	0.00	30.015 
07:50	65.0	65.0	65.0	90	62.0	0	1	292	0.00	30.015 
07:55	64.8	64.8	64.8	90	61.8	1	3	292	0.00	30.015 
08:00	64.7	64.7	64.7	91	62.0	0	1	292	0.00	30.007 
08:05	64.7	64.7	64.7	91	62.0	0	1	292	0.00	30.007 
08:10	64.8	64.8	64.8	92	62.4	0	1	292	0.00	30.007 
08:15	64.8	64.8	64.8	92	62.4	0	1	292	0.00	30.004 
08:20	64.8	64.8	64.8	92	62.4	0	3	292	0.00	30.004 
08:25	64.8	64.8	64.8	92	62.4	0	2	292	0.00	30.004 
08:30	64.8	64.8	64.8	92	62.4	0	1	292	0.00	30.003 
08:35	65.0	65.0	65.0	92	62.6	0	0	---	0.00	30.003 
08:40	65.0	65.0	65.0	92	62.6	0	1	292	0.00	30.003 
08:45	65.2	65.2	65.2	92	62.8	0	4	292	0.00	30.006 
08:50	65.2	65.2	65.2	92	62.8	0	3	90	0.00	30.006 
08:55	65.2	65.2	65.2	92	62.8	0	4	90	0.00	30.006 
09:00	65.2	65.2	65.2	91	62.5	1	3	90	0.00	30.003 
09:05	65.0	65.0	65.0	91	62.3	1	4	90	0.00	30.003 
09:10	65.0	65.0	65.0	91	62.3	0	3	90	0.00	30.003 
09:15	65.0	65.0	65.0	91	62.3	1	3	90	0.00	29.999 
09:20	65.2	65.2	65.2	91	62.5	1	3	90	0.00	29.999 
09:25	65.3	65.3	65.3	91	62.6	0	2	90	0.00	29.999 
09:30	65.5	65.5	65.5	91	62.8	0	2	112	0.00	29.999 
09:35	65.6	65.6	65.6	90	62.6	2	4	112	0.00	29.999 
09:40	65.8	65.8	65.8	90	62.8	1	4	112	0.00	29.999 
09:45	66.0	66.0	66.0	90	63.0	1	5	112	0.00	29.994 
09:50	66.1	66.1	66.1	89	62.8	1	3	112	0.00	29.994 
09:55	66.1	66.1	66.1	89	62.8	1	4	112	0.00	29.994 
10:00	66.1	66.1	66.1	88	62.4	0	3	112	0.00	30.000 
10:05	66.3	66.3	66.3	88	62.6	0	2	112	0.00	30.000 
10:10	66.3	66.3	66.3	88	62.6	0	3	112	0.00	30.000 
10:15	66.4	66.4	66.4	88	62.7	0	1	112	0.01	30.005 
10:20	66.3	66.3	66.3	87	62.3	0	3	112	0.00	30.005 
10:25	66.1	66.1	66.1	87	62.1	0	2	112	0.01	30.005 
10:30	66.1	66.1	66.1	87	62.1	0	1	112	0.01	30.005 
10:35	66.3	66.3	66.3	87	62.3	0	1	112	0.00	30.005 
10:40	66.3	66.3	66.3	88	62.6	0	2	112	0.01	30.005 
10:45	66.1	66.1	66.1	88	62.4	0	1	112	0.01	29.996 
10:50	66.0	66.0	66.0	89	62.7	0	2	112	0.01	29.996 
10:55	66.0	66.0	66.0	90	63.0	0	2	112	0.00	29.996 
11:00	66.1	66.1	66.1	90	63.1	1	3	112	0.00	29.989 
11:05	66.3	66.3	66.3	90	63.3	0	2	112	0.00	29.989 
11:10	66.1	66.1	66.1	90	63.1	1	3	112	0.00	29.989 
11:15	66.1	66.1	66.1	90	63.1	1	5	112	0.00	29.979 
11:20	65.8	65.8	65.8	89	62.5	2	5	112	0.00	29.979 
11:25	66.0	66.0	66.0	90	63.0	0	2	112	0.00	29.979 
11:30	66.0	66.0	66.0	90	63.0	1	4	112	0.00	29.975 
11:35	66.0	66.0	66.0	90	63.0	1	4	90	0.00	29.975 
11:40	66.0	66.0	66.0	90	63.0	1	4	90	0.00	29.975 
11:45	66.3	66.3	66.3	90	63.3	0	2	90	0.00	29.982 
11:50	66.8	66.8	66.8	90	63.8	1	4	90	0.00	29.982 
11:55	67.1	67.1	67.1	90	64.1	0	2	90	0.00	29.982 
12:00	67.4	67.4	67.4	89	64.0	1	4	90	0.00	29.978 
12:05	67.6	67.6	67.6	88	63.9	1	4	90	0.00	29.978 
12:10	68.1	68.1	68.1	88	64.4	1	4	90	0.00	29.978 
12:15	68.4	68.4	68.4	88	64.7	1	5	68	0.00	29.974 
12:20	68.9	68.9	68.9	88	65.2	1	4	68	0.00	29.974 
12:25	69.4	69.4	69.4	87	65.4	1	3	68	0.00	29.974 
12:30	70.1	70.1	70.1	87	66.0	0	2	68	0.00	29.971 
12:35	71.1	71.1	71.1	86	66.7	1	4	68	0.00	29.971 
12:40	71.5	71.5	71.5	84	66.4	1	4	68	0.00	29.971 
12:45	71.6	71.6	71.6	84	66.5	1	2	68	0.00	29.967 
12:50	72.0	72.0	72.0	84	66.9	0	2	68	0.00	29.967 
12:55	72.3	72.3	72.3	83	66.8	1	4	68	0.00	29.967 
13:00	73.0	73.0	73.0	82	67.2	0	3	68	0.00	29.957 
13:05	73.3	73.3	73.3	80	66.7	1	4	68	0.00	29.957 
13:10	73.2	73.2	73.2	82	67.4	1	4	68	0.00	29.957 
13:15	73.5	73.5	73.5	82	67.7	1	3	68	0.00	29.955 
13:20	73.7	73.7	73.7	81	67.5	1	3	68	0.00	29.955 
13:25	73.5	73.5	73.5	81	67.3	1	3	68	0.00	29.955 
13:30	73.7	73.7	73.7	82	67.9	0	2	68	0.00	29.950 
13:35	73.7	73.7	73.7	82	67.9	1	4	68	0.00	29.950 
13:40	73.5	73.5	73.5	82	67.7	1	4	68	0.00	29.950 
13:45	73.5	73.5	73.5	83	68.0	0	3	68	0.00	29.940 
13:50	73.5	73.5	73.5	82	67.7	0	1	68	0.00	29.940 
13:55	73.7	73.7	73.7	81	67.5	0	2	68	0.00	29.940 
14:00	73.9	73.9	73.9	83	68.4	0	3	68	0.00	29.934 
14:05	74.0	74.0	74.0	82	68.1	1	3	68	0.00	29.934 
14:10	74.2	74.2	74.2	82	68.3	0	2	68	0.00	29.934 
14:15	74.2	74.2	74.2	81	68.0	0	2	68	0.00	29.930 
14:20	74.2	74.2	74.2	82	68.3	1	3	68	0.00	29.930 
14:25	74.4	74.4	74.4	82	68.5	1	3	68	0.00	29.930 
14:30	74.4	74.4	74.4	81	68.2	0	2	68	0.00	29.926 
14:35	74.6	74.6	74.6	81	68.4	0	3	68	0.00	29.926 
14:40	74.9	74.9	74.9	81	68.7	1	4	68	0.00	29.926 
14:45	75.1	75.1	75.7	80	68.5	1	4	68	0.00	29.922 
14:50	75.3	75.3	75.9	81	69.1	1	6	68	0.00	29.922 
14:55	75.1	75.1	75.6	81	68.9	2	5	68	0.00	29.922 
15:00	75.4	75.4	76.0	81	69.1	2	3	68	0.00	29.919 
15:05	76.0	76.0	76.9	81	69.7	0	3	68	0.00	29.919 
15:10	76.3	76.3	77.5	80	69.7	1	3	68	0.00	29.919 
15:15	76.5	76.5	77.7	81	70.2	1	2	68	0.00	29.918 
15:20	76.7	76.7	78.0	81	70.4	0	2	68	0.00	29.918 
15:25	76.5	76.5	77.8	79	69.5	0	2	68	0.00	29.918 
15:30	76.3	76.3	77.6	78	68.9	1	4	68	0.00	29.918 
15:35	76.3	76.3	77.5	80	69.7	0	2	68	0.00	29.918 
15:40	76.1	76.1	77.2	79	69.1	0	2	68	0.00	29.918 
15:45	76.3	76.3	77.4	81	70.0	0	2	68	0.00	29.917 
15:50	76.7	76.7	78.1	80	70.0	1	4	68	0.00	29.917 
15:55	76.8	76.8	78.3	79	69.8	1	5	90	0.00	29.917 
16:00	77.2	77.2	78.9	78	69.8	0	3	90	0.00	29.909 
16:05	77.2	77.2	79.0	77	69.4	0	1	90	0.00	29.909 
16:10	77.2	77.2	79.0	77	69.4	1	6	90	0.00	29.909 
16:15	77.0	77.0	78.6	78	69.6	1	3	90	0.00	29.903 
16:20	77.4	77.4	79.3	78	70.0	1	4	90	0.00	29.903 
16:25	77.2	77.2	79.0	77	69.4	2	5	90	0.00	29.903 
16:30	77.0	77.0	78.6	78	69.6	1	4	90	0.00	29.902 
16:35	77.4	77.4	79.3	77	69.6	1	3	90	0.00	29.902 
16:40	77.9	77.9	80.1	77	70.1	1	3	90	0.00	29.902 
16:45	78.3	78.3	80.6	75	69.7	0	2	90	0.00	29.901 
16:50	78.5	78.5	81.0	76	70.3	1	2	90	0.00	29.901 
16:55	78.3	78.3	80.7	76	70.1	1	4	90	0.00	29.901 
17:00	78.1	78.1	80.4	78	70.7	2	4	90	0.00	29.888 
17:05	78.3	78.3	80.7	77	70.5	1	3	90	0.00	29.888 
17:10	78.5	78.5	81.0	76	70.3	2	7	90	0.00	29.888 
17:15	78.3	78.3	80.7	76	70.1	2	6	90	0.00	29.886 
17:20	78.1	78.1	80.4	76	69.9	1	3	90	0.00	29.886 
17:25	78.1	78.1	80.3	75	69.5	0	3	90	0.00	29.886 
17:30	78.3	78.3	80.7	76	70.1	1	3	90	0.00	29.886 
17:35	78.3	78.3	80.7	76	70.1	2	5	90	0.00	29.886 
17:40	78.5	78.5	81.0	75	69.9	2	4	90	0.00	29.886 
17:45	78.5	78.5	81.0	75	69.9	1	3	90	0.00	29.870 
17:50	78.3	78.3	80.6	75	69.7	1	4	90	0.00	29.870 
17:55	78.1	78.1	80.4	76	69.9	1	3	90	0.00	29.870 
18:00	77.9	77.9	80.0	76	69.7	2	4	90	0.00	29.860 
18:05	77.6	77.6	79.6	77	69.8	3	5	90	0.00	29.860 
18:10	77.4	77.4	79.3	77	69.6	3	6	68	0.00	29.860 
18:15	77.2	77.2	78.9	78	69.8	3	6	90	0.00	29.856 
18:20	77.0	77.0	78.6	79	70.0	0	4	90	0.00	29.856 
18:25	76.7	76.7	78.1	79	69.7	1	4	270	0.00	29.856 
18:30	76.5	76.5	77.7	82	70.6	1	5	90	0.05	29.874 
18:35	75.6	75.6	76.0	84	70.4	1	3	90	0.03	29.874 
18:40	74.9	74.9	74.9	86	70.4	1	3	90	0.11	29.874 
18:45	74.0	74.0	74.0	88	70.2	0	2	90	0.30	29.891 
18:50	73.7	73.7	73.7	90	70.6	0	3	90	0.07	29.891 
18:55	73.7	73.7	73.7	91	70.9	1	4	90	0.01	29.891 
19:00	73.5	73.5	73.5	91	70.7	3	5	90	0.00	29.875 
19:05	73.2	73.2	73.2	92	70.7	1	5	90	0.00	29.875 
19:10	73.0	73.0	73.0	92	70.5	2	5	112	0.00	29.875 
19:15	73.2	73.2	73.2	92	70.7	1	4	90	0.00	29.876 
19:20	73.0	73.0	73.0	92	70.5	1	5	68	0.00	29.876 
19:25	72.8	72.8	72.8	92	70.3	1	5	22	0.00	29.876 
19:30	72.8	72.8	72.8	92	70.3	0	2	90	0.00	29.886 
19:35	73.0	73.0	73.0	93	70.8	0	2	90	0.00	29.886 
19:40	73.0	73.0	73.0	92	70.5	0	4	90	0.00	29.886 
19:45	72.8	72.8	72.8	92	70.3	0	3	90	0.00	29.891 
19:50	72.7	72.7	72.7	92	70.2	0	3	90	0.00	29.891 
19:55	72.3	72.3	72.3	92	69.8	0	2	90	0.00	29.891 
20:00	72.1	72.1	72.1	92	69.6	0	2	90	0.00	29.892 
20:05	72.1	72.1	72.1	92	69.6	0	2	90	0.00	29.892 
20:10	72.0	72.0	72.0	92	69.5	0	2	90	0.00	29.892 
20:15	72.0	72.0	72.0	92	69.5	0	2	90	0.00	29.896 
20:20	71.8	71.8	71.8	92	69.3	0	2	90	0.00	29.896 
20:25	71.6	71.6	71.6	91	68.8	1	4	90	0.00	29.896 
20:30	71.3	71.3	71.3	91	68.5	0	3	90	0.00	29.894 
20:35	70.9	70.9	70.9	91	68.1	1	4	90	0.00	29.894 
20:40	70.8	70.8	70.8	91	68.0	2	4	90	0.00	29.894 
20:45	70.4	70.4	70.4	90	67.3	1	3	90	0.00	29.897 
20:50	70.3	70.3	70.3	91	67.5	0	2	90	0.00	29.897 
20:55	70.1	70.1	70.1	90	67.0	1	5	90	0.00	29.897 
21:00	69.8	69.8	69.8	91	67.0	1	3	45	0.00	29.900 
21:05	69.6	69.6	69.6	91	66.8	1	3	45	0.00	29.900 
21:10	69.6	69.6	69.6	91	66.8	0	3	68	0.00	29.900 
21:15	69.4	69.4	69.4	91	66.7	0	1	68	0.00	29.898 
21:20	69.4	69.4	69.4	91	66.7	0	1	68	0.00	29.898 
21:25	69.3	69.3	69.3	92	66.9	0	1	68	0.00	29.898 
21:30	69.3	69.3	69.3	92	66.9	0	2	68	0.00	29.896 
21:35	69.1	69.1	69.1	92	66.7	0	1	68	0.00	29.896 
21:40	69.1	69.1	69.1	92	66.7	1	5	68	0.00	29.896 
21:45	69.1	69.1	69.1	92	66.7	1	3	112	0.00	29.895 
21:50	69.1	69.1	69.1	92	66.7	0	4	90	0.00	29.895 
21:55	68.9	68.9	68.9	92	66.5	1	3	90	0.00	29.895 
22:00	68.9	68.9	68.9	92	66.5	0	2	90	0.00	29.897 
22:05	68.8	68.8	68.8	92	66.4	1	4	90	0.00	29.897 
22:10	68.8	68.8	68.8	92	66.4	1	3	90	0.00	29.897 
22:15	68.8	68.8	68.8	92	66.4	1	4	90	0.00	29.902 
22:20	68.6	68.6	68.6	92	66.2	1	3	90	0.00	29.902 
22:25	68.6	68.6	68.6	92	66.2	0	3	90	0.00	29.902 
22:30	68.4	68.4	68.4	92	66.0	1	3	90	0.00	29.899 
22:35	68.4	68.4	68.4	92	66.0	1	3	90	0.00	29.899 
22:40	68.4	68.4	68.4	92	66.0	0	2	90	0.00	29.899 
22:45	68.3	68.3	68.3	92	65.9	1	5	90	0.00	29.907 
22:50	68.1	68.1	68.1	92	65.7	1	5	90	0.00	29.907 
22:55	67.9	67.9	67.9	92	65.5	0	2	90	0.00	29.907 
23:00	67.8	67.8	67.8	92	65.4	0	2	90	0.00	29.918 
23:05	67.8	67.8	67.8	92	65.4	1	4	90	0.00	29.918 
23:10	67.6	67.6	67.6	92	65.2	0	2	112	0.00	29.918 
23:15	67.4	67.4	67.4	92	65.0	0	3	112	0.00	29.922 
23:20	67.3	67.3	67.3	92	64.9	0	2	112	0.00	29.922 
23:25	67.1	67.1	67.1	92	64.7	0	1	112	0.00	29.922 
23:30	66.9	66.9	66.9	92	64.5	1	3	112	0.00	29.921 
23:35	66.8	66.8	66.8	92	64.4	0	1	112	0.00	29.921 
23:40	66.6	66.6	66.6	92	64.2	0	3	112	0.00	29.921 
23:45	66.4	66.4	66.4	92	64.0	0	2	112	0.00	29.920 
23:50	66.3	66.3	66.3	92	63.9	0	2	112	0.00	29.920 
23:55	66.3	66.3	66.3	92	63.9	0	2	112	0.00	29.920 

CoCoRaHS
IN-AL-39
A2 Web Hosting
Creative Commons License
GoDaddy
search engine by freefind advanced

loaded 2018-11-15 16:00:54 • last modified 2010-11-18 10:43:29
Privacy PolicyDisclaimer
• wx.awcolley.com is powered by PmWiki v.2002016 •
• all content (unless otherwise noted) © 2018 A W Colley